User: anonymous   Login
Location: Unspecified
(0.0000°N, 0.0000°E)
Time: 01:41:05
(UTC+00:00)
Language:

Milstar DFS 2 - Orbit

View from above orbital plane
View from above orbital plane
View from above satellite
View from above satellite

Ground track
Ground track

The orbit data is extracted from the following two-line orbital elements,

1 23712U 95060A   17103.77201594 0.00000000  00000-0  00000-0 0    05
2 23712  12.3872  30.3341 0014810 255.7932 104.0496  1.00270000    05
Epoch (UTC): 13 April 2017 18:31:42
Eccentricity: 0.0014810
inclination: 12.3872°
perigee height: 35724 km
apogee height: 35849 km
right ascension of ascending node: 30.3341°
argument of perigee: 255.7932°
revolutions per day: 1.00270000
mean anomaly at epoch: 104.0496°
orbit number at epoch: 0

The dashed part of the orbit path shows where the satellite is in the earth's shadow,  

DLR